This is the latest recevied weather packets stored in our database for station/object CE1RLP-34. If no packets are shown the sender has not sent any weather packets the latest 10 day(s).
| Time | Temp. | Humidity | Pressure | Rain* | Wind** | Luminosity | Snow |
|---|---|---|---|---|---|---|---|
| 1777858506 | 15° C | 8% | 1083.3 hPa | - | - | - | - |
| 1777857603 | 15° C | 8% | 1083.4 hPa | - | - | - | - |
| 1777856703 | 15° C | 8% | 1083.4 hPa | - | - | - | - |
| 1777855801 | 15.56° C | 8% | 1083.3 hPa | - | - | - | - |
| 1777854901 | 15.56° C | 8% | 1083.2 hPa | - | - | - | - |
| 1777854000 | 15.56° C | 8% | 1083.2 hPa | - | - | - | - |
| 1777852226 | 16.11° C | 7% | 1082.9 hPa | - | - | - | - |
| 1777851325 | 16.67° C | 7% | 1082.7 hPa | - | - | - | - |
| 1777850423 | 17.22° C | 6% | 1082.6 hPa | - | - | - | - |
| 1777849523 | 17.78° C | 6% | 1082.6 hPa | - | - | - | - |
| 1777848620 | 18.89° C | 5% | 1082.5 hPa | - | - | - | - |
| 1777847720 | 20.56° C | 5% | 1082.5 hPa | - | - | - | - |
| 1777846818 | 21.67° C | 5% | 1082.5 hPa | - | - | - | - |
| 1777845918 | 22.78° C | 4% | 1082.4 hPa | - | - | - | - |
| 1777845015 | 23.89° C | 4% | 1082.4 hPa | - | - | - | - |
| 1777844115 | 25.56° C | 3% | 1082.5 hPa | - | - | - | - |
| 1777843213 | 27.22° C | 4% | 1082.4 hPa | - | - | - | - |
| 1777842313 | 30.56° C | 3% | 1082.3 hPa | - | - | - | - |
| 1777841410 | 32.22° C | 3% | 1082.6 hPa | - | - | - | - |
| 1777840510 | 33.33° C | 3% | 1082.5 hPa | - | - | - | - |
| 1777839608 | 34.44° C | 4% | 1082.7 hPa | - | - | - | - |
| 1777838708 | 34.44° C | 4% | 1082.7 hPa | - | - | - | - |
| 1777837806 | 34.44° C | 4% | 1082.7 hPa | - | - | - | - |
| 1777836905 | 34.44° C | 4% | 1082.7 hPa | - | - | - | - |
| 1777836003 | 34.44° C | 4% | 1082.8 hPa | - | - | - | - |
* Rain since midnight (hover to see other rain measurements)
** Current wind speed in m/s (hover to see current wind gust speed)